Tulsa Jones, OK

12:13 PM CST on February 24, 2018 (GMT -0600)
Jones Jr.

Weather History for KRVS - October, 2012

Change the Weather History Date:

Monday, October 8, 2012

  Actual Average (KTUL) Record (KTUL)
Temperature  
Mean Temperature 47 °F -  
Max Temperature 64 °F 74 °F 97 °F (1979)
Min Temperature 30 °F 53 °F 30 °F (2000)
Degree Days  
Heating Degree Days 18    
Moisture  
Dew Point 33 °F    
Average Humidity 75    
Maximum Humidity 100    
Minimum Humidity 31    
Precipitation  
Precipitation 0.00 in - - ()
Sea Level Pressure  
Sea Level Pressure 30.20 in    
Wind  
Wind Speed 1 mph (South)    
Max Wind Speed 13 mph    
Max Gust Speed 20 mph    
Visibility 7 miles    
Events Fog    
Averages and records for this station are not official NWS values.
T = Trace of Precipitation, MM = Missing Value Source: NWS Daily Summary

Daily Weather History Graph

Daily Weather History Graph

Search for Another Location

Airport or City:

Trip Planner

Search our weather history database for the weather conditions in past years. The results will help you decide how hot, cold, wet, or windy it might be!

Date:

Astronomy

Oct. 08, 2012 Rise Set
Actual Time 7:25 AM CDT 6:56 PM CDT
Civil Twilight 6:59 AM CDT 7:22 PM CDT
Nautical Twilight 6:29 AM CDT 7:52 PM CDT
Astronomical Twilight 6:00 AM CDT 8:21 PM CDT
Moon 12:17 AM CDT (10/8) 2:35 PM CDT (10/8)
Length of Visible Light 12h 23m
Length of Day
11h 31m
Last Quarter, 46% of the Moon is Illuminated
Oct 8
Last Quarter
Oct 15
New
Oct 21
First Quarter
Oct 29
Full
Nov 6
Last Quarter

Hourly Weather History & Observations

Time (CDT) Temp. Windchill Dew Point Humidity Pressure Visibility Wind Dir Wind Speed Gust Speed Precip Events Conditions
12:53 AM 37.0 °F - 34.0 °F 89% 30.26 in 9.0 mi Calm Calm - N/A   Clear
1:53 AM 36.0 °F - 33.1 °F 89% 30.26 in 6.0 mi Calm Calm - N/A   Clear
2:43 AM 35.6 °F - 32.0 °F 87% 30.23 in 6.0 mi Calm Calm - N/A   Partly Cloudy
2:53 AM 35.1 °F - 32.0 °F 89% 30.25 in 7.0 mi Calm Calm - N/A   Partly Cloudy
3:53 AM 34.0 °F - 30.9 °F 89% 30.24 in 6.0 mi Calm Calm - N/A   Clear
4:53 AM 33.1 °F - 30.9 °F 92% 30.24 in 5.0 mi Calm Calm - N/A   Clear
5:33 AM 33.8 °F - 30.2 °F 87% 30.23 in 8.0 mi Calm Calm - N/A   Partly Cloudy
5:53 AM 33.1 °F - 30.0 °F 89% 30.25 in 6.0 mi Calm Calm - N/A   Mostly Cloudy
6:16 AM 32.0 °F - 30.2 °F 93% 30.23 in 1.5 mi Calm Calm - N/A   Mostly Cloudy
6:20 AM 32.0 °F - 30.2 °F 93% 30.23 in 0.5 mi Calm Calm - N/A Fog Fog
6:42 AM 32.0 °F - 30.2 °F 93% 30.23 in 1.0 mi Calm Calm - N/A   Mist
6:48 AM 30.2 °F - 28.4 °F 93% 30.23 in 2.0 mi Calm Calm - N/A   Partly Cloudy
6:53 AM 32.0 °F - 30.0 °F 92% 30.25 in 4.0 mi Calm Calm - N/A   Partly Cloudy
7:36 AM 32.0 °F - 30.2 °F 93% 30.23 in 2.5 mi Calm Calm - N/A   Mostly Cloudy
7:39 AM 32.0 °F - 30.2 °F 93% 30.23 in 0.8 mi Calm Calm - N/A   Mostly Cloudy
7:53 AM 32.0 °F - 30.0 °F 92% 30.26 in 0.2 mi Calm Calm - N/A Fog Fog
8:27 AM 33.8 °F - 33.8 °F 100% 30.25 in 0.5 mi Calm Calm - N/A Fog Fog
8:34 AM 35.6 °F 32.8 °F 33.8 °F 93% 30.26 in 4.0 mi SSW 3.5 mph - N/A   Mostly Cloudy
8:43 AM 35.6 °F - 33.8 °F 93% 30.26 in 10.0 mi Calm Calm - N/A   Scattered Clouds
8:53 AM 37.0 °F - 35.1 °F 93% 30.28 in 10.0 mi Calm Calm - N/A   Clear
9:53 AM 45.0 °F - 39.0 °F 80% 30.27 in 10.0 mi Calm Calm - N/A   Clear
10:53 AM 53.1 °F - 35.1 °F 50% 30.25 in 10.0 mi South 10.4 mph - N/A   Clear
11:53 AM 57.0 °F - 35.1 °F 44% 30.22 in 10.0 mi Variable 5.8 mph - N/A   Clear
12:53 PM 59.0 °F - 34.0 °F 39% 30.19 in 10.0 mi South 6.9 mph - N/A   Clear
1:53 PM 61.0 °F - 34.0 °F 36% 30.16 in 10.0 mi South 8.1 mph 16.1 mph N/A   Clear
2:53 PM 63.0 °F - 34.0 °F 34% 30.12 in 10.0 mi South 8.1 mph - N/A   Clear
3:53 PM 64.9 °F - 33.1 °F 31% 30.10 in 10.0 mi SSW 12.7 mph 19.6 mph N/A   Clear
4:53 PM 64.9 °F - 33.1 °F 31% 30.08 in 10.0 mi SSW 9.2 mph 17.3 mph N/A   Clear
5:53 PM 63.0 °F - 33.1 °F 33% 30.06 in 10.0 mi SSW 11.5 mph - N/A   Clear
6:53 PM 60.1 °F - 34.0 °F 38% 30.06 in 10.0 mi South 6.9 mph - N/A   Clear
7:53 PM 51.1 °F - 37.9 °F 61% 30.06 in 10.0 mi Calm Calm - N/A   Clear
9:53 PM 48.0 °F - 39.0 °F 71% 30.08 in 10.0 mi Calm Calm - N/A   Clear
10:53 PM 46.0 °F - 39.0 °F 76% 30.08 in 10.0 mi Calm Calm - N/A   Clear
11:53 PM 45.0 °F - 39.0 °F 80% 30.07 in 10.0 mi Calm Calm - N/A   Clear